This is the latest recevied weather packets stored in our database for station/object 9W2GND-1. If no packets are shown the sender has not sent any weather packets the latest 10 day(s).
| Time | Temp. | Humidity | Pressure | Rain* | Wind** | Luminosity | Snow |
|---|---|---|---|---|---|---|---|
| 1778313227 | 31.67° C | 64% | 1009.9 hPa | - | - | - | - |
| 1778312327 | 32.22° C | 64% | 1010 hPa | - | - | - | - |
| 1778311427 | 32.22° C | 64% | 1010.1 hPa | - | - | - | - |
| 1778310525 | 31.67° C | 65% | 1010.6 hPa | - | - | - | - |
| 1778309625 | 32.22° C | 64% | 1011.1 hPa | - | - | - | - |
| 1778308724 | 32.22° C | 65% | 1011.5 hPa | - | - | - | - |
| 1778308420 | 32.22° C | 65% | 1011.8 hPa | - | - | - | - |
| 1778307824 | 32.22° C | 65% | 1011.8 hPa | - | - | - | - |
| 1778306924 | 32.22° C | 65% | 1012 hPa | - | - | - | - |
| 1778306024 | 32.22° C | 65% | 1012 hPa | - | - | - | - |
| 1778305124 | 31.67° C | 67% | 1012.3 hPa | - | - | - | - |
| 1778304224 | 31.67° C | 68% | 1012.6 hPa | - | - | - | - |
| 1778303324 | 31.67° C | 68% | 1012.7 hPa | - | - | - | - |
| 1778302424 | 31.11° C | 68% | 1012.9 hPa | - | - | - | - |
| 1778301814 | 31.11° C | 69% | 1013.2 hPa | - | - | - | - |
| 1778301524 | 31.11° C | 69% | 1013.2 hPa | - | - | - | - |
| 1778300624 | 31.11° C | 68% | 1013.3 hPa | - | - | - | - |
| 1778299723 | 30.56° C | 69% | 1013.3 hPa | - | - | - | - |
| 1778298823 | 30.56° C | 68% | 1013.2 hPa | - | - | - | - |
| 1778297923 | 30.56° C | 65% | 1013.4 hPa | - | - | - | - |
| 1778297023 | 30.56° C | 64% | 1013.4 hPa | - | - | - | - |
| 1778296123 | 31.11° C | 68% | 1013.5 hPa | - | - | - | - |
| 1778295223 | 31.11° C | 68% | 1013.6 hPa | - | - | - | - |
| 1778294323 | 30.56° C | 66% | 1013.6 hPa | - | - | - | - |
| 1778293423 | 30° C | 68% | 1013.7 hPa | - | - | - | - |
* Rain since midnight (hover to see other rain measurements)
** Current wind speed in m/s (hover to see current wind gust speed)